Time,TemperatureF,DewpointF,PressureIn,WindDirection,WindDirectionDegrees,WindSpeedMPH,WindSpeedGustMPH,Humidity,HourlyPrecipIn,Conditions,Clouds,dailyrainin,SolarRadiationWatts/m^2,SoftwareType,DateUTC
2013-01-29 03:00:00,36.0,36.0,30.03,NNW,328,3.0,-999.0,100,-99.99,,,-99.99,0.010000,,2013-01-29 08:00:00,
2013-01-29 03:52:00,36.0,36.0,30.03,NNW,328,3.0,-999.0,100,-99.99,,,-99.99,0.010000,,2013-01-29 08:52:00,
2013-01-29 04:00:00,33.0,33.0,30.04,North,3,5.0,-999.0,100,-99.99,,,-99.99,0.000000,,2013-01-29 09:00:00,
2013-01-29 04:52:00,33.0,33.0,30.04,North,3,5.0,-999.0,100,-99.99,,,-99.99,0.000000,,2013-01-29 09:52:00,
2013-01-29 05:00:00,32.0,32.0,30.04,NNW,346,2.0,-999.0,100,-99.99,,,-99.99,0.000000,,2013-01-29 10:00:00,
2013-01-29 05:52:00,32.0,32.0,30.04,NNW,346,2.0,-999.0,100,-99.99,,,-99.99,0.000000,,2013-01-29 10:52:00,
2013-01-29 06:00:00,32.0,32.0,30.06,NW,313,0.0,-999.0,100,-99.99,,,-99.99,0.030000,,2013-01-29 11:00:00,
2013-01-29 06:53:00,32.0,32.0,30.06,NW,313,0.0,-999.0,100,-99.99,,,-99.99,0.030000,,2013-01-29 11:53:00,
2013-01-29 07:00:00,32.0,32.0,30.06,SE,125,1.0,-999.0,100,-99.99,,,-99.99,0.020000,,2013-01-29 12:00:00,
2013-01-29 07:53:00,32.0,32.0,30.06,SE,125,1.0,-999.0,100,-99.99,,,-99.99,0.020000,,2013-01-29 12:53:00,
2013-01-29 09:00:00,34.0,34.0,30.06,SSE,153,3.0,-999.0,100,-99.99,,,-99.99,47.580002,,2013-01-29 14:00:00,
2013-01-29 09:53:00,34.0,34.0,30.06,SSE,153,3.0,-999.0,100,-99.99,,,-99.99,47.580002,,2013-01-29 14:53:00,
2013-01-29 10:00:00,36.0,36.0,30.05,SE,141,4.0,-999.0,100,-99.99,,,-99.99,102.099998,,2013-01-29 15:00:00,
2013-01-29 10:53:00,36.0,36.0,30.05,SE,141,4.0,-999.0,100,-99.99,,,-99.99,102.099998,,2013-01-29 15:53:00,
2013-01-29 11:00:00,38.0,38.0,30.03,SE,135,6.0,-999.0,100,-99.99,,,-99.99,181.300003,,2013-01-29 16:00:00,
2013-01-29 11:53:00,38.0,38.0,30.03,SE,135,6.0,-999.0,100,-99.99,,,-99.99,181.300003,,2013-01-29 16:53:00,
2013-01-29 12:00:00,40.0,40.0,29.98,SE,143,8.0,-999.0,100,-99.99,,,-99.99,147.600006,,2013-01-29 17:00:00,
2013-01-29 12:53:00,40.0,40.0,29.98,SE,143,8.0,-999.0,100,-99.99,,,-99.99,147.600006,,2013-01-29 17:53:00,
2013-01-29 13:00:00,41.0,41.0,29.98,SSE,149,8.0,-999.0,100,-99.99,,,-99.99,70.900002,,2013-01-29 18:00:00,
2013-01-29 13:52:00,41.0,41.0,29.98,SSE,149,8.0,-999.0,100,-99.99,,,-99.99,70.900002,,2013-01-29 18:52:00,
2013-01-29 14:00:00,41.0,41.0,29.92,SE,142,5.0,-999.0,100,-99.99,,,-99.99,38.450001,,2013-01-29 19:00:00,
2013-01-29 14:52:00,41.0,41.0,29.92,SE,142,5.0,-999.0,100,-99.99,,,-99.99,38.450001,,2013-01-29 19:52:00,
2013-01-29 15:00:00,43.0,43.0,29.90,SSE,156,10.0,-999.0,100,-99.99,,,-99.99,75.449997,,2013-01-29 20:00:00,
2013-01-29 15:54:00,43.0,43.0,29.90,SSE,156,10.0,-999.0,100,-99.99,,,-99.99,75.449997,,2013-01-29 20:54:00,
2013-01-29 16:00:00,42.0,42.0,29.90,SSE,153,7.0,-999.0,100,-99.99,,,-99.99,39.400002,,2013-01-29 21:00:00,
2013-01-29 16:53:00,42.0,42.0,29.90,SSE,153,7.0,-999.0,100,-99.99,,,-99.99,39.400002,,2013-01-29 21:53:00,
2013-01-29 17:00:00,43.0,43.0,29.90,SSE,155,5.0,-999.0,100,-99.99,,,-99.99,5.890000,,2013-01-29 22:00:00,
2013-01-29 17:53:00,43.0,43.0,29.90,SSE,155,5.0,-999.0,100,-99.99,,,-99.99,5.890000,,2013-01-29 22:53:00,
2013-01-29 19:00:00,48.0,46.0,29.89,South,172,7.0,-999.0,93,-99.99,,,-99.99,0.000000,,2013-01-30 00:00:00,
2013-01-29 19:53:00,48.0,46.0,29.89,South,172,7.0,-999.0,93,-99.99,,,-99.99,0.000000,,2013-01-30 00:53:00,
2013-01-29 20:00:00,48.0,46.0,29.87,South,174,8.0,-999.0,95,-99.99,,,-99.99,0.000000,,2013-01-30 01:00:00,
2013-01-29 20:52:00,48.0,46.0,29.87,South,174,8.0,-999.0,95,-99.99,,,-99.99,0.000000,,2013-01-30 01:52:00,
2013-01-29 21:00:00,48.0,48.0,29.87,South,169,8.0,-999.0,100,-99.99,,,-99.99,0.000000,,2013-01-30 02:00:00,
2013-01-29 21:53:00,48.0,48.0,29.87,South,169,8.0,-999.0,100,-99.99,,,-99.99,0.000000,,2013-01-30 02:53:00,
2013-01-29 22:00:00,49.0,49.0,29.88,SSE,163,10.0,-999.0,100,-99.99,,,-99.99,0.000000,,2013-01-30 03:00:00,
2013-01-29 22:52:00,49.0,49.0,29.88,SSE,163,10.0,-999.0,100,-99.99,,,-99.99,0.000000,,2013-01-30 03:52:00,
2013-01-29 23:00:00,48.0,48.0,29.86,SSE,157,9.0,-999.0,100,-99.99,,,-99.99,0.000000,,2013-01-30 04:00:00,
2013-01-29 23:52:00,48.0,48.0,29.86,SSE,157,9.0,-999.0,100,-99.99,,,-99.99,0.000000,,2013-01-30 04:52:00,